CDT,Max TemperatureF,Mean TemperatureF,Min TemperatureF,Max Dew PointF,MeanDew PointF,Min DewpointF,Max Humidity, Mean Humidity, Min Humidity, Max Sea Level PressureIn, Mean Sea Level PressureIn, Min Sea Level PressureIn, Max VisibilityMiles, Mean VisibilityMiles, Min VisibilityMiles, Max Wind SpeedMPH, Mean Wind SpeedMPH, Max Gust SpeedMPH,PrecipitationIn, CloudCover, Events, WindDirDegrees
2013-9-1,86,76,68,74,72,68,100,88,64,29.85,29.82,29.79,10,6,0,8,2,,0.00,2,Fog,331
2013-9-2,82,71,61,70,61,56,94,74,47,29.98,29.93,29.86,10,10,10,12,6,16,0.00,1,,348
2013-9-3,79,66,53,61,57,53,99,75,46,30.10,30.05,29.98,10,10,7,7,3,,0.00,0,,7
2013-9-4,82,67,52,62,57,51,98,74,41,30.19,30.14,30.09,10,10,1,5,1,,0.00,0,,219
2013-9-5,85,70,55,65,60,54,97,73,41,30.22,30.18,30.15,10,10,7,6,0,,0.00,0,,139
2013-9-6,85,72,58,66,62,57,98,75,44,30.21,30.14,30.06,10,10,4,8,1,,0.00,0,,157
2013-9-7,88,74,59,68,64,59,98,73,42,30.07,30.01,29.93,10,9,3,10,3,16,0.00,0,,177
2013-9-8,84,76,69,73,70,66,99,89,63,30.01,29.96,29.93,10,8,2,18,3,26,0.46,2,Rain-Thunderstorm,142
2013-9-9,93,82,70,76,72,69,99,80,45,29.99,29.95,29.93,10,7,2,9,5,,0.00,1,Rain,156
2013-9-10,94,80,68,72,70,66,97,73,41,30.10,30.06,29.99,10,8,4,8,4,,0.00,0,,181
2013-9-11,92,78,65,72,67,65,97,71,41,30.15,30.10,30.03,10,9,5,9,3,,0.00,0,,204
2013-9-12,81,70,58,68,62,52,93,76,52,30.11,30.05,29.99,10,10,4,14,6,20,0.09,2,Rain-Thunderstorm,338
2013-9-13,71,60,50,56,50,40,97,70,33,30.16,30.11,30.08,10,10,10,14,6,20,0.00,1,,13
2013-9-14,72,58,44,48,45,38,95,64,29,30.19,30.12,30.06,10,10,10,7,4,,0.00,0,,112
2013-9-15,78,63,48,64,53,46,97,71,44,30.12,30.06,30.00,10,10,7,12,6,18,0.02,3,Rain,178
2013-9-16,71,63,56,61,55,52,94,78,56,30.29,30.23,30.13,10,10,4,16,9,21,0.00,5,,44
2013-9-17,73,64,54,60,55,51,88,74,56,30.27,30.20,30.10,10,10,10,10,6,,0.00,3,Rain,114
2013-9-18,84,73,62,70,66,58,99,83,58,30.10,30.05,29.97,10,8,2,15,7,18,0.12,3,Rain-Thunderstorm,156
2013-9-19,89,80,70,72,70,68,97,78,50,30.01,29.96,29.87,10,8,3,13,8,20,0.00,0,Rain,181
2013-9-20,74,65,55,71,64,53,99,91,78,29.94,29.91,29.87,10,9,2,9,5,17,0.49,4,Rain-Thunderstorm,30
2013-9-21,69,58,48,52,50,48,97,78,48,29.96,29.93,29.90,10,10,7,13,5,18,0.09,0,,324
2013-9-22,73,58,44,52,49,44,99,74,41,30.04,29.98,29.95,10,10,7,8,2,,0.00,0,,71
2013-9-23,75,61,48,52,48,46,95,69,36,30.06,30.00,29.96,10,10,10,12,6,16,0.00,0,,110
2013-9-24,79,65,51,61,56,49,92,73,48,29.98,29.91,29.83,10,10,10,12,7,18,0.00,2,Rain-Thunderstorm,109
2013-9-25,82,70,58,64,60,58,97,77,46,29.90,29.87,29.83,10,10,5,8,3,,0.00,2,,78
2013-9-26,82,70,59,63,59,53,97,72,41,30.05,29.99,29.90,10,9,5,8,5,,0.00,0,,114
2013-9-27,81,68,54,59,54,49,89,64,34,30.14,30.08,30.03,10,10,7,10,5,,0.00,0,,129
2013-9-28,82,70,57,62,58,54,90,67,45,30.08,30.02,29.96,10,10,10,18,8,31,0.00,4,,165
2013-9-29,72,61,50,64,52,47,98,75,41,30.08,30.02,29.99,10,10,4,13,7,18,0.12,2,Rain,355
2013-9-30,75,60,45,63,56,45,100,88,58,30.01,29.96,29.91,10,8,0,10,3,,0.00,4,Fog,156